TITAN 3C TRANSTAGE R/B, 3292

Orbit data source: Space-Track

TITAN 3C TRANSTAGE R/B, 3292 is space debris in GEO originally from a launch on Thu, 13 Jun 1968 UTC launched from the Air Force Eastern Test Range (AFETR). Debris objects in space refer to the collection of defunct objects orbiting the Earth. Examples of debris include non-operational satellites, rocket bodies, and fragments generated from explosions, collisions, or faulty payload assembly.

Not visible in the next 10 days
Identifier
3292, 1968-050J
Orbit
GEO
Country
Flag of USUS
Related business
Manufacturer
Martin Marietta
Mission
Spacecraft
Bus & Motor
TRANSTAGE, Unknown motor
Mass
~1,950 kg wet, ~1,950 kg dry
Launch date (UTC)
1968-06-13 (58 years ago)
Launch vehicle
Unknown
Launch site
Air Force Eastern Test Range (AFETR)
Object type
Payload
Rocket body
Debris
Shape & HBR
Unknown
Radar Cross Section
Large (>1 m²)

Expand to show TLE details & history
Last TLE update: 12 hours ago

TLE from 12 hours ago
0 TITAN 3C TRANSTAGE R/B
1  3292U 68050J   26197.82892022 -.00000099  00000-0  00000+0 0  9991
2  3292   7.6891  52.5166 0175663   8.0063 171.1592  1.05593570 46819
Epoch: 2026-07-16T19:53Z
TLE epoch observation values (Epoch: 2026-07-16T19:53:38.707Z)
Latitude
0.07486°
Longitude
-1.06002°
Altitude
35,062.755 km
Speed
3.074 km/s
True Right ascension
15h 28m 03s
True Declination
0° 04' 29"
Sunlit
Object was in daylight at epoch
Visualization orbit readout
Latitude
Unknown
Longitude
Unknown
Altitude
Unknown
Speed
Unknown
Apparent Right ascension
Unknown
Apparent Declination
Unknown
Sunlit
N/A
Visualization observer readout
Local Sidereal Time
20:41:17
Azimuth
Unknown
Elevation
Unknown
Doppler factor
Unknown
Orbital elements
Apogee altitude
35,074.395 km
Perigee altitude
33,643.201 km
Semi-major axis
40,736.935 km
Eccentricity
0.01757
Inclination
7.6891°
RAAN
52.5166°
Arg. of periapsis
8.0063°
True anomaly
171.46199°
Mean anomaly
171.1592°
Eccentric anomaly
171.31124°
Mean motion
0.26397 °/min
Orbital period
1,363.77 mins
BSTAR
0
Loading maneuver chart data...
Computing Atmospheric mass density...
Loading historical data...
Loading historical data...
Loading historical data...
Loading historical data...
Loading historical data...
Loading historical data...
Loading historical data...

Documentation

Showing up to 5 results
|